• In Hungary
  • List of Countries
  • For 7 days
  • Water Temperature
  • Satellite Maps
  • Weather Map
  • News
  • Weather Widgets
  • user-avatar
    Login

    Hourly Weather Chocmirowko

    Today, 20 September, Thursday

    Time Temperature Precipitation Wind Pressure Humidity
    00:00 +19°C° 0 mm 4 mps 759 mmHg 67%
    01:00 +19°C° 0 mm 5 mps 759 mmHg 65%
    02:00 +19°C° 0 mm 5 mps 759 mmHg 67%
    03:00 +19°C° 0 mm 5 mps 759 mmHg 70%
    04:00 +19°C° 0 mm 5 mps 759 mmHg 72%
    05:00 +19°C° 0 mm 4 mps 759 mmHg 73%
    06:00 +19°C° 0 mm 4 mps 759 mmHg 75%
    07:00 +19°C° 0 mm 4 mps 759 mmHg 76%
    08:00 +21°C° 0 mm 4 mps 760 mmHg 70%
    09:00 +23°C° 0 mm 4 mps 760 mmHg 64%
    10:00 +26°C° 0 mm 4 mps 760 mmHg 57%
    11:00 +26°C° 0 mm 4 mps 760 mmHg 55%
    12:00 +27°C° 0 mm 5 mps 760 mmHg 52%
    13:00 +28°C° 0 mm 5 mps 760 mmHg 49%
    14:00 +27°C° 0 mm 4 mps 759 mmHg 50%
    15:00 +27°C° 0 mm 4 mps 759 mmHg 51%
    16:00 +27°C° 0 mm 4 mps 759 mmHg 52%
    17:00 +25°C° 0 mm 3 mps 759 mmHg 58%
    18:00 +23°C° 0 mm 2 mps 759 mmHg 64%
    19:00 +21°C° 0 mm 1 mps 759 mmHg 70%
    20:00 +20°C° 0 mm 2 mps 758 mmHg 72%
    21:00 +20°C° 0 mm 3 mps 758 mmHg 73%
    22:00 +20°C° 0 mm 4 mps 758 mmHg 75%
    23:00 +20°C° 0 mm 4 mps 758 mmHg 75%

    Tomorrow, 21 September, Friday

    Time Temperature Precipitation Wind Pressure Humidity
    00:00 +20°C° 0 mm 5 mps 757 mmHg 74%
    01:00 +20°C° 0 mm 5 mps 757 mmHg 74%
    02:00 +20°C° 0 mm 5 mps 756 mmHg 74%
    03:00 +20°C° 0 mm 5 mps 756 mmHg 73%
    04:00 +20°C° 0 mm 5 mps 756 mmHg 73%
    05:00 +21°C° 0 mm 6 mps 755 mmHg 71%
    06:00 +21°C° 0 mm 6 mps 755 mmHg 69%
    07:00 +21°C° 0 mm 7 mps 755 mmHg 66%
    08:00 +23°C° 0 mm 7 mps 754 mmHg 60%
    09:00 +26°C° 0 mm 8 mps 754 mmHg 53%
    10:00 +28°C° 0 mm 8 mps 753 mmHg 46%
    11:00 +29°C° 0 mm 8 mps 752 mmHg 43%
    12:00 +31°C° 0 mm 9 mps 752 mmHg 41%
    13:00 +31°C° 0 mm 9 mps 751 mmHg 38%
    14:00 +31°C° 0 mm 9 mps 750 mmHg 39%
    15:00 +29°C° 0 mm 8 mps 749 mmHg 40%
    16:00 +29°C° 0 mm 8 mps 749 mmHg 41%
    17:00 +26°C° 0.6 mm 9 mps 749 mmHg 54%
    18:00 +21°C° 0.6 mm 9 mps 750 mmHg 66%
    19:00 +17°C° 0.6 mm 10 mps 750 mmHg 79%
    20:00 +16°C° 1.2 mm 10 mps 751 mmHg 78%
    21:00 +14°C° 1.2 mm 10 mps 752 mmHg 77%
    22:00 +13°C° 1.2 mm 9 mps 752 mmHg 76%
    23:00 +12°C° 0.1 mm 10 mps 753 mmHg 75%

    Day after tomorrow, 22 September, Saturday

    Time Temperature Precipitation Wind Pressure Humidity
    00:00 +12°C° 0.1 mm 10 mps 754 mmHg 73%
    01:00 +11°C° 0.1 mm 10 mps 754 mmHg 71%
    02:00 +9°C° 0 mm 10 mps 754 mmHg 70%
    03:00 +9°C° 0 mm 10 mps 754 mmHg 69%
    04:00 +9°C° 0 mm 10 mps 754 mmHg 67%
    05:00 +9°C° 0.2 mm 10 mps 755 mmHg 67%
    06:00 +9°C° 0.2 mm 10 mps 755 mmHg 66%
    07:00 +11°C° 0.2 mm 10 mps 755 mmHg 65%
    08:00 +12°C° 0.3 mm 10 mps 756 mmHg 63%
    09:00 +13°C° 0.3 mm 9 mps 756 mmHg 61%
    10:00 +15°C° 0.3 mm 9 mps 757 mmHg 58%
    11:00 +15°C° 0.1 mm 9 mps 757 mmHg 57%
    12:00 +16°C° 0.1 mm 9 mps 757 mmHg 55%
    13:00 +16°C° 0.1 mm 9 mps 758 mmHg 53%
    14:00 +16°C° 0.3 mm 9 mps 757 mmHg 54%
    15:00 +15°C° 0.3 mm 9 mps 757 mmHg 55%
    16:00 +15°C° 0.3 mm 9 mps 757 mmHg 55%
    17:00 +13°C° 0.6 mm 9 mps 757 mmHg 62%
    18:00 +12°C° 0.6 mm 9 mps 757 mmHg 69%
    19:00 +11°C° 0.6 mm 9 mps 757 mmHg 76%
    20:00 +11°C° 0.3 mm 9 mps 757 mmHg 77%
    21:00 +10°C° 0.3 mm 9 mps 757 mmHg 78%
    22:00 +10°C° 0.3 mm 8 mps 757 mmHg 79%
    23:00 +10°C° 0.3 mm 8 mps 757 mmHg 79%

    23 September, Sunday

    Time Temperature Precipitation Wind Pressure Humidity
    00:00 +10°C° 0.3 mm 8 mps 757 mmHg 80%
    01:00 +10°C° 0.3 mm 8 mps 757 mmHg 80%
    02:00 +9°C° 0.1 mm 8 mps 757 mmHg 80%
    03:00 +9°C° 0.1 mm 8 mps 757 mmHg 81%
    04:00 +9°C° 0.1 mm 8 mps 757 mmHg 81%
    05:00 +9°C° 0.3 mm 7 mps 757 mmHg 81%
    06:00 +9°C° 0.3 mm 7 mps 757 mmHg 81%
    07:00 +9°C° 0.3 mm 7 mps 757 mmHg 81%
    08:00 +10°C° 0.2 mm 7 mps 757 mmHg 76%
    09:00 +11°C° 0.2 mm 7 mps 757 mmHg 71%
    10:00 +12°C° 0.2 mm 7 mps 757 mmHg 67%
    11:00 +14°C° 0.3 mm 7 mps 756 mmHg 62%
    12:00 +14°C° 0.3 mm 6 mps 755 mmHg 57%
    13:00 +15°C° 0.3 mm 6 mps 755 mmHg 52%
    14:00 +14°C° 0.4 mm 5 mps 754 mmHg 59%
    15:00 +13°C° 0.4 mm 4 mps 754 mmHg 65%
    16:00 +13°C° 0.4 mm 3 mps 753 mmHg 72%
    17:00 +12°C° 0.8 mm 3 mps 752 mmHg 78%
    18:00 +11°C° 0.8 mm 3 mps 751 mmHg 84%
    19:00 +10°C° 0.8 mm 2 mps 750 mmHg 90%
    20:00 +10°C° 3.2 mm 4 mps 748 mmHg 92%
    21:00 +9°C° 3.2 mm 5 mps 747 mmHg 93%
    22:00 +8°C° 3.2 mm 7 mps 745 mmHg 95%
    23:00 +9°C° 2.3 mm 7 mps 745 mmHg 94%

    24 September, Monday

    Time Temperature Precipitation Wind Pressure Humidity
    00:00 +9°C° 2.3 mm 8 mps 744 mmHg 92%
    01:00 +8°C° 2.3 mm 9 mps 743 mmHg 91%
    02:00 +8°C° 2.1 mm 10 mps 744 mmHg 89%
    03:00 +8°C° 2.1 mm 10 mps 744 mmHg 87%
    04:00 +8°C° 2.1 mm 11 mps 745 mmHg 85%
    05:00 +8°C° 0.9 mm 10 mps 747 mmHg 83%
    06:00 +8°C° 0.9 mm 10 mps 748 mmHg 82%
    07:00 +8°C° 0.9 mm 10 mps 750 mmHg 81%
    08:00 +8°C° 1.1 mm 10 mps 751 mmHg 81%
    09:00 +8°C° 1.1 mm 10 mps 752 mmHg 80%
    10:00 +9°C° 1.1 mm 11 mps 754 mmHg 80%
    11:00 +9°C° 0.2 mm 11 mps 755 mmHg 73%
    12:00 +11°C° 0.2 mm 10 mps 756 mmHg 66%
    13:00 +11°C° 0.2 mm 10 mps 758 mmHg 58%
    14:00 +11°C° 0 mm 9 mps 758 mmHg 56%
    15:00 +11°C° 0 mm 9 mps 759 mmHg 53%
    16:00 +11°C° 0 mm 9 mps 760 mmHg 51%
    17:00 +10°C° 0.1 mm 8 mps 760 mmHg 54%
    18:00 +9°C° 0.1 mm 8 mps 761 mmHg 57%
    19:00 +9°C° 0.1 mm 8 mps 761 mmHg 60%
    20:00 +8°C° 0.4 mm 7 mps 762 mmHg 63%
    21:00 +8°C° 0.4 mm 7 mps 762 mmHg 67%
    22:00 +8°C° 0.4 mm 7 mps 762 mmHg 71%
    23:00 +8°C° 0.3 mm 6 mps 762 mmHg 74%

    25 September, Tuesday

    Time Temperature Precipitation Wind Pressure Humidity
    00:00 +7°C° 0.3 mm 6 mps 763 mmHg 77%
    01:00 +7°C° 0.3 mm 6 mps 763 mmHg 80%
    02:00 +7°C° 0.1 mm 6 mps 763 mmHg 80%
    03:00 +7°C° 0.1 mm 6 mps 763 mmHg 80%
    04:00 +7°C° 0.1 mm 6 mps 763 mmHg 80%
    05:00 +7°C° 0.2 mm 6 mps 763 mmHg 81%
    06:00 +7°C° 0.2 mm 6 mps 763 mmHg 81%
    07:00 +8°C° 0.2 mm 6 mps 762 mmHg 82%
    08:00 +8°C° 1.9 mm 7 mps 762 mmHg 84%
    09:00 +7°C° 1.9 mm 8 mps 762 mmHg 85%
    10:00 +8°C° 1.9 mm 9 mps 762 mmHg 87%
    11:00 +8°C° 1.4 mm 9 mps 762 mmHg 82%
    12:00 +10°C° 1.4 mm 8 mps 762 mmHg 76%
    13:00 +11°C° 1.4 mm 8 mps 762 mmHg 71%
    14:00 +11°C° 0.3 mm 8 mps 762 mmHg 71%
    15:00 +11°C° 0.3 mm 7 mps 762 mmHg 70%
    16:00 +11°C° 0.3 mm 7 mps 762 mmHg 69%
    17:00 +10°C° 0.1 mm 6 mps 763 mmHg 73%
    18:00 +9°C° 0.1 mm 5 mps 764 mmHg 77%
    19:00 +8°C° 0.1 mm 4 mps 764 mmHg 81%
    20:00 +8°C° 0 mm 4 mps 765 mmHg 81%
    21:00 +8°C° 0 mm 4 mps 766 mmHg 82%
    22:00 +9°C° 0 mm 3 mps 766 mmHg 82%
    23:00 +9°C° 0 mm 3 mps 767 mmHg 82%
    Show more